RH
91 94 96 94 92 94 95 92 88 91 89 86 85 86 88 86 84 88 84 83 86 83
94 92 92 93 91 94 93 87 87 88 90 89 88 88 90 85 85 85 85 85 83 83
93 91 92 94 95 93 93 90 90 90 90 90 89 89 92 90 86 86 85 81 86 84
96 93 92 92 95 94 92 93 92 93 91 91 90 88 92 92 87 86 86 86 86 82
92 92 96 95 92 95 96 94 93 91 88 90 90 89 89 88 83 88 86 82 86 84
96 97 97 95 95 94 93 93 94 90 90 90 88 89 90 89 88 86 86 84 85 81
96 96 97 97 95 94 92 90 92 86 84 88 84 84 86 90 91 88 83 84 84 86
98 97 98 97 97 98 96 95 92 91 88 84 80 70 83 85 88 91 89 85 84 82
96 96 98 97 97 97 97 97 96 97 96 95 88 100 96 92 86 87 88 86 85 84
95 95 96 95 96 98 98 96 97 97 94 97 97 100 100 97 87 88 89 90 89 82
87 90 93 96 95 96 95 96 96 95 95 94 96 100 100 99 94 94 92 90 88 87
83 85 86 89 92 94 95 97 95 93 94 95 95 100 100 100 98 96 94 93 92 92
80 84 86 86 84 85 88 93 94 93 94 98 96 100 100 100 99 97 98 96 98 100
77 79 83 83 81 80 81 79 81 88 93 93 96 98 100 100 94 95 94 94 96 97
Wind_Speed
6 3 3 4 3 4 3 3 4 4 4 3 3 3 3 1 0 2 2 3 3 2
4 5 4 4 3 3 3 3 3 4 4 4 4 4 3 2 2 1 1 1 1 1
4 4 3 3 5 5 4 3 4 4 4 5 4 4 4 2 1 2 1 1 2 1
4 4 4 4 4 4 3 4 4 4 4 5 5 5 4 4 3 3 2 1 2 2
2 1 4 5 5 5 5 4 5 4 3 4 5 5 5 5 4 5 4 3 3 4
5 3 3 5 5 5 4 3 3 4 5 5 5 5 5 5 5 5 5 5 5 4
5 5 4 3 3 3 3 3 4 3 4 4 4 5 4 4 5 4 5 5 5 5
6 6 5 3 3 4 4 2 3 3 4 4 4 5 5 6 6 5 5 5 5 5
6 6 7 5 5 7 7 6 6 6 4 3 2 9 4 5 5 5 5 5 5 5
5 6 6 6 5 6 6 5 6 6 7 7 5 7 9 6 4 4 4 5 6 6
6 7 6 5 4 5 3 6 4 5 4 4 3 4 6 7 3 2 3 4 5 6
5 6 5 6 5 5 3 3 3 3 5 4 4 4 5 4 3 3 4 3 4 4
5 6 5 4 4 2 2 4 4 4 4 5 6 10 9 5 3 5 5 5 3 8
5 6 5 5 4 5 6 6 6 7 5 4 6 6 10 11 5 4 4 4 3 2
Wind_Direction
182 173 191 187 189 179 184 196 172 181 179 180 199 197 168 142 107 95 70 69 55 36
187 189 207 202 193 196 184 190 195 195 189 186 186 194 178 184 148 108 65 81 77 61
177 196 191 187 219 201 195 187 187 200 201 196 192 185 177 189 203 183 206 184 133 79
168 185 190 177 214 251 207 198 211 198 217 207 200 182 187 188 191 219 211 230 255 262
61 221 208 188 190 211 230 239 211 190 221 223 200 194 201 202 193 199 219 214 219 249
30 14 310 265 211 196 203 200 233 218 202 201 210 210 221 217 212 209 228 232 216 220
29 5 338 329 249 206 185 178 193 208 248 232 208 217 226 229 242 230 235 231 228 235
41 21 19 25 79 85 84 115 199 207 223 231 231 236 221 218 227 235 251 253 247 246
44 30 23 19 39 79 75 63 77 65 42 348 326 352 298 257 249 236 240 263 272 267
35 56 49 12 22 70 76 80 66 63 63 59 65 26 11 342 250 246 246 254 268 282
44 42 39 48 29 46 49 73 69 67 65 76 61 29 20 351 21 332 292 274 272 270
53 57 47 38 17 37 6 59 49 66 72 34 40 355 12 5 6 355 323 306 290 288
59 52 41 32 36 360 352 30 34 47 36 79 48 30 41 28 6 18 359 338 75 62
50 65 37 41 33 26 33 47 32 32 33 58 53 53 27 7 19 26 13 354 349 348